Lexington Weather

Lexington, Massachusetts, USA

35°F
10/30/2020 5:36am 
  • Lexington Conditions: Overcast
  • Temperature: 35.4°F / 1.9°CColder 0.9°F than last hour.
  • Dew Point: 34.7°FDecreased 0.9°Fsince last hour.
  • Relative Humidity: 97
  • Wind: Wind from N N 1 mph, 10-min avg: 2 mph, gust: 4 mph
  • Barometer: 29.76 in Steady
  • Visibility: 10 miles
  • Rain Today: 0.08 in
  •   
Southeast Middlesex County - Winter Weather Advisory
 - SEE ALL NEARBY ALERTS -

Regional Weather Roundup
for Boston / Norton, MA

        
000
ASUS41 KBOX 300504
RWRBOX

REGIONAL WEATHER ROUNDUP
NATIONAL WEATHER SERVICE BOSTON/NORTON MA
100 AM EDT FRI OCT 30 2020

NOTE:  "FAIR" INDICATES FEW OR NO CLOUDS BELOW 12,000 FEET WITH NO 
SIGNIFICANT WEATHER AND/OR OBSTRUCTIONS TO VISIBILITY.

MAZALL-300600-
EASTERN MASSACHUSETTS
  
CITY           SKY/WX    TMP DP  RH WIND       PRES   REMARKS
BOSTON         LGT RAIN  44  41  89 NE24G36   29.71F FOG              
BEVERLY        LGT RAIN  43  40  89 NE16G32   29.73F FOG              
LAWRENCE       LGT RAIN  40  37  89 N16G26    29.76F WCI  31          
BEDFORD        LGT RAIN  42  40  92 N15       29.73F                  
BLUE HILL        N/A     41  40  96 NE23G35   29.66F WCI  31          
NORWOOD        LGT RAIN  45  41  86 NE10G25   29.70F FOG              
MARSHFIELD     LGT RAIN  48  46  93 NE17G28   29.70R                  
PLYMOUTH       LGT RAIN  46  44  93 NE24G36   29.68R FOG              
TAUNTON        LGT RAIN  47  44  90 N12G22    29.68S                  
NEW BEDFORD    CLOUDY    47  47 100 NE15G24   29.65R                  
$$

MAZALL-300600-
CAPE COD AND THE ISLANDS
  
CITY           SKY/WX    TMP DP  RH WIND       PRES   REMARKS
FALMOUTH       DRIZZLE   46  46 100 NE23G40   29.65R                  
HYANNIS        LGT RAIN  48  46  93 NE16G29   29.63R FOG              
CHATHAM        LGT RAIN  48  45  89 NE16G28   29.64R FOG              
PROVINCETOWN   LGT RAIN  47  45  93 NE25G35   29.69R FOG              
NANTUCKET      LGT RAIN N/A N/A N/A NE24      29.60R                  
MARTHAS VNYRD  LGT RAIN  48  46  93 NE18G30   29.62R FOG              
$$
 
MAZALL-300600-
CENTRAL AND WESTERN MASSACHUSETTS
  
CITY           SKY/WX    TMP DP  RH WIND       PRES   REMARKS
WORCESTER      CLOUDY    39  36  89 NE15G24   29.69F WCI  31          
FITCHBURG      LGT RAIN  39  37  92 N10G20    29.76F                  
ORANGE         LGT RAIN  39  37  92 N7        29.76R                  
SPRINGFIELD    RAIN      41  39  93 N10       29.72R                  
WESTFIELD      LGT RAIN  40  39  97 N15       29.74R FOG     WCI  32  
NORTH ADAMS    CLOUDY    39  37  92 W5        29.77R                  
PITTSFIELD     LGT RAIN  39  36  89 NE9       29.72S FOG              
$$
 
RIZALL-300600-
RHODE ISLAND
  
CITY           SKY/WX    TMP DP  RH WIND       PRES   REMARKS
PROVIDENCE     CLOUDY    46  44  93 NE15G25   29.67S                  
NEWPORT        CLOUDY    46  44  93 NE24G32   29.64R                  
BLOCK ISLAND   LGT RAIN  48  46  93 NE26G33   29.62R                  
SMITHFIELD     LGT RAIN  42  42 100 NE17G25   29.68S                  
WESTERLY       LGT RAIN  46  43  89 NE10G18   29.63F FOG              
$$
 
CTZALL-300600-
CONNECTICUT
  
CITY           SKY/WX    TMP DP  RH WIND       PRES   REMARKS
BRADLEY INTL   LGT RAIN  42  39  89 N13       29.72R                  
HARTFORD       LGT RAIN  44  40  85 N10G21    29.70S                  
BRIDGEPORT     LGT RAIN  45  42  89 NE20G26   29.65F                  
DANBURY        LGT RAIN  43  42  97 NE8       29.69S FOG              
GROTON         CLOUDY    45  43  93 N12       29.64R                  
NEW HAVEN      LGT RAIN  46  43  89 N13       29.65S FOG              
CHESTER        LGT RAIN  45  43  93 NE10G17   29.65R                  
MERIDEN        LGT RAIN  43  40  89 N8G20     29.68R                  
WILLIMANTIC    CLOUDY    43  40  89 NE12G20   29.68F                  
OXFORD         LGT RAIN  41  41 100 NE15G23   29.65F FOG              
$$

MEZ002-015-021-024-NHZ003-005-008-011-012-014-VTZ005-008-300600-
NORTHERN NEW ENGLAND
  
CITY           SKY/WX    TMP DP  RH WIND       PRES   REMARKS
PORTLAND ME    LGT RAIN  36  33  89 N17G30    29.83R WCI  26          
BANGOR ME      MOCLDY    35  21  56 N18       29.89S WCI  24          
CONCORD NH     LGT RAIN  37  34  89 N9        29.79F WCI  30          
MANCHESTER NH  LGT RAIN  39  35  86 NE13G24   29.77S WCI  31          
NASHUA NH      LGT RAIN  39  39 100 NE10      29.79R                  
PORTSMOUTH NH  LGT RAIN  38  35  90 N15G24    29.77  WCI  29          
JAFFREY NH     LGT RAIN  36  33  89 VRB5      29.75R                  
KEENE NH       LGT RAIN  37  36  96 N8        29.78  WCI  31          
BURLINGTON VT  CLOUDY    35  25  66 N9        29.90R WCI  28          
MT. WASHINGTON FLURRIES  16  10  79 N23         N/A  WCI  -2          
$$

NYZ052-076-300600-
EASTERN NEW YORK
  
CITY           SKY/WX    TMP DP  RH WIND       PRES   REMARKS
ALBANY         LGT RAIN  37  37 100 N13G22    29.80R FOG     WCI  29  
NEW YORK CITY  LGT RAIN  47  43  86 N16G25    29.65R FOG              
$$
 
ANZALL-300600-
MARINE OBSERVATIONS
  
STATION/POSITION TIME  TEMP    WIND        PRES    VSBY  WAVE
                       AIR SEA DIR/SP/G                  HT/PER
                 (UTC) (F)     (DEG/KT/KT) (MB)    (MI)  (FT/S)
BOSTON BUOY      0450   47 55   30/ 27/ 33 1006.7R         9/ 7
BUZZARDS BAY     0400           30/ 32/ 36 1002.7R
NANTUCKET SOUND  0450      60   30/ 25/ 31   N/A           5/ 5
MASS BAY-STELLWA 0404   48 55   40/ 25/ 31 1004.9R  1 3/4  8/ 6
ISLE OF SHOALS   0400   41      30/ 33/ 36 1006.7R
S OF BLOCK IS    0426      61                N/A          10/ 7
$$

......................KEY.........................
  SKY/WX - SKY CONDITION/PRESENT WEATHER
  TMP    - TEMPERATURE IN FAHRENHEIT
  DWPT   - DEWPOINT IN FAHRENHEIT
  RH     - RELATIVE HUMIDITY IN PERCENT
  WIND   - DIRECTION AND SPEED IN MPH
  PRES   - MEAN SEA LEVEL PRESSURE IN INCHES OF HG
  WCI    - WIND CHILL INDEX
  VSB    - VISIBILITY IN MILES
  HX     - HEAT INDEX
  TC     - TEMPERATURE IN CELSIUS
  VRB    - VARIABLE WIND DIRECTION
  N/A    - NOT AVAILABLE
  
      

Other recent Regional Weather Roundups

Fri Oct 30, 5:04am

Fri Oct 30, 4:04am

Fri Oct 30, 3:04am

Fri Oct 30, 2:04am

Fri Oct 30, 12:04am

Thu Oct 29, 11:04pm

Thu Oct 29, 10:04pm

Thu Oct 29, 9:04pm

Thu Oct 29, 8:04pm

Thu Oct 29, 7:04pm

Thu Oct 29, 6:04pm

Thu Oct 29, 5:05pm

Thu Oct 29, 4:05pm

Thu Oct 29, 3:05pm

Thu Oct 29, 2:04pm

Thu Oct 29, 1:04pm

Thu Oct 29, 12:04pm

Thu Oct 29, 11:04am

Thu Oct 29, 10:04am

Thu Oct 29, 9:04am

Thu Oct 29, 8:04am

Thu Oct 29, 7:04am

Thu Oct 29, 6:04am

Thu Oct 29, 5:04am

Thu Oct 29, 4:04am

Thu Oct 29, 3:04am

Thu Oct 29, 2:04am

Thu Oct 29, 1:05am

Thu Oct 29, 12:04am

Wed Oct 28, 11:05pm

Wed Oct 28, 10:04pm

Wed Oct 28, 9:04pm

Wed Oct 28, 8:04pm

Wed Oct 28, 7:05pm

Wed Oct 28, 6:04pm

Wed Oct 28, 5:05pm

Wed Oct 28, 4:04pm

Wed Oct 28, 3:04pm

Wed Oct 28, 2:04pm

Wed Oct 28, 1:05pm

Wed Oct 28, 12:05pm

Wed Oct 28, 11:05am

Wed Oct 28, 10:04am

Wed Oct 28, 9:04am

Wed Oct 28, 8:04am

Wed Oct 28, 7:04am

Wed Oct 28, 6:04am

Wed Oct 28, 5:05am

Wed Oct 28, 4:04am

Wed Oct 28, 3:04am

Wed Oct 28, 2:04am

Wed Oct 28, 1:05am

Wed Oct 28, 12:04am

Tue Oct 27, 11:04pm

Tue Oct 27, 10:04pm

Tue Oct 27, 9:05pm

Tue Oct 27, 8:04pm

Tue Oct 27, 7:04pm

Tue Oct 27, 6:04pm

Tue Oct 27, 5:04pm

Tue Oct 27, 4:05pm

Tue Oct 27, 3:04pm

Tue Oct 27, 2:04pm

Tue Oct 27, 1:04pm

Tue Oct 27, 12:04pm

Tue Oct 27, 11:04am

Tue Oct 27, 10:04am

Tue Oct 27, 9:04am

Tue Oct 27, 8:04am

Tue Oct 27, 7:04am

Tue Oct 27, 6:04am

Tue Oct 27, 5:04am

Tue Oct 27, 4:04am

Tue Oct 27, 3:04am

Tue Oct 27, 2:05am

Tue Oct 27, 1:04am

Tue Oct 27, 12:04am

Mon Oct 26, 11:05pm

Mon Oct 26, 10:04pm

Mon Oct 26, 9:04pm

Mon Oct 26, 8:04pm

Mon Oct 26, 7:04pm

Mon Oct 26, 6:04pm

Mon Oct 26, 5:04pm

Mon Oct 26, 4:05pm

Mon Oct 26, 2:04pm

Mon Oct 26, 1:04pm

Mon Oct 26, 12:04pm

Mon Oct 26, 11:05am

Mon Oct 26, 10:04am

Mon Oct 26, 9:04am

Mon Oct 26, 8:04am

Mon Oct 26, 7:04am

Mon Oct 26, 6:04am

Mon Oct 26, 5:04am

Mon Oct 26, 4:04am

Mon Oct 26, 3:04am

Mon Oct 26, 2:04am

Mon Oct 26, 1:04am

Mon Oct 26, 12:04am

Sun Oct 25, 11:05pm

Sun Oct 25, 10:04pm

Sun Oct 25, 9:04pm

Sun Oct 25, 8:04pm

Sun Oct 25, 7:04pm

Sun Oct 25, 6:04pm

Sun Oct 25, 5:04pm

Sun Oct 25, 4:05pm

Sun Oct 25, 3:04pm

Sun Oct 25, 2:04pm

Sun Oct 25, 1:04pm

Sun Oct 25, 12:04pm

Sun Oct 25, 11:04am

Sun Oct 25, 10:04am

Sun Oct 25, 9:04am

Sun Oct 25, 8:04am

Sun Oct 25, 7:04am

Sun Oct 25, 6:04am

Sun Oct 25, 5:04am

Sun Oct 25, 4:04am

Sun Oct 25, 3:04am

Sun Oct 25, 2:04am

Sun Oct 25, 1:05am

Sun Oct 25, 12:04am

Sat Oct 24, 11:04pm

Sat Oct 24, 10:04pm

Sat Oct 24, 9:04pm

Sat Oct 24, 8:04pm

Sat Oct 24, 7:04pm

Sat Oct 24, 6:04pm

Sat Oct 24, 5:05pm

Sat Oct 24, 4:04pm

Sat Oct 24, 3:04pm

Sat Oct 24, 2:04pm

Sat Oct 24, 1:05pm

Sat Oct 24, 12:04pm

Sat Oct 24, 11:05am

Sat Oct 24, 10:05am

Sat Oct 24, 9:04am

Sat Oct 24, 8:04am

Sat Oct 24, 7:04am

Sat Oct 24, 6:04am

Sat Oct 24, 5:04am

Sat Oct 24, 4:04am

Sat Oct 24, 3:04am

Sat Oct 24, 2:04am

Sat Oct 24, 1:05am

Sat Oct 24, 12:04am

Fri Oct 23, 11:04pm

Fri Oct 23, 10:04pm

Fri Oct 23, 9:04pm

Fri Oct 23, 8:05pm

Fri Oct 23, 7:04pm

Fri Oct 23, 6:04pm

Fri Oct 23, 5:05pm

Fri Oct 23, 4:04pm

Fri Oct 23, 3:04pm

Fri Oct 23, 2:05pm

Fri Oct 23, 1:04pm

Fri Oct 23, 12:04pm

Fri Oct 23, 11:04am

Fri Oct 23, 10:04am

Fri Oct 23, 9:04am

Fri Oct 23, 8:04am

Fri Oct 23, 7:04am

Fri Oct 23, 6:04am

Meta data:

ID: 26e42246-92b3-46c4-9cdb-36848ddba89e
Link: https://api.weather.gov/products/26e42246-92b3-46c4-9cdb-36848ddba89e